Location: Unspecified
(0.0000°N, 0.0000°E)
Time: 14:52:49
(UTC+00:00)

Courier 1B - Visible Passes

Search period start: 19 April 2024 00:00
Search period end: 29 April 2024 00:00
Orbit: 962 x 1208 km, 28.3° (Epoch: 18 April)

Date Brightness Start Highest point End Pass type
(mag) Time Alt. Az. Time Alt. Az. Time Alt. Az.
19 Apr 9.4 18:57:38 10° SSW 19:02:06 16° SSE 19:04:24 14° SE visible
19 Apr 9.8 20:49:38 10° SW 20:51:19 17° SW 20:51:19 17° SW visible
20 Apr 8.8 19:56:01 10° SW 20:01:14 32° S 20:01:14 32° S visible
21 Apr 8.9 19:02:36 10° SSW 19:08:49 26° SSE 19:11:15 23° SE visible
21 Apr 9.6 20:55:36 10° WSW 20:58:11 23° SW 20:58:11 23° SW visible
22 Apr 8.1 20:01:45 10° SW 20:08:18 55° S 20:08:18 55° S visible
23 Apr 8.3 19:08:05 10° SW 19:15:17 44° SSE 19:18:32 30° ESE visible
23 Apr 9.4 21:02:05 10° WSW 21:05:29 28° W 21:05:29 28° W visible
24 Apr 10.2 04:52:56 10° N 04:53:52 10° NNE 04:54:47 10° NNE visible
24 Apr 8.7 18:14:37 10° SSW 18:21:12 32° SSE 18:27:59 10° E visible
24 Apr 7.8 20:07:57 10° WSW 20:15:41 81° NNW 20:15:49 81° NNW visible
25 Apr 7.8 19:14:02 10° SW 19:21:37 76° SSE 19:26:14 27° ENE visible
25 Apr 9.5 21:09:11 10° W 21:13:12 27° WNW 21:13:12 27° WNW visible
26 Apr 9.9 04:56:11 10° NNW 05:00:49 18° NNE 05:05:18 10° ENE visible
26 Apr 8.1 18:20:19 10° SW 18:27:35 55° SSE 18:35:10 10° ENE visible
26 Apr 8.6 20:14:42 10° WSW 20:22:01 48° NNW 20:23:42 42° N visible
27 Apr 10.0 04:03:06 10° N 04:06:38 14° NNE 04:10:05 10° NE visible
27 Apr 8.2 19:20:29 10° WSW 19:27:56 64° NNW 19:34:13 17° NE visible
27 Apr 9.9 21:17:08 10° WNW 21:21:11 20° NW 21:21:11 20° NW visible
28 Apr 10.2 03:10:39 10° N 03:12:19 11° NNE 03:13:58 10° NNE visible
28 Apr 9.2 05:01:16 10° NW 05:07:31 32° NNE 05:13:27 10° E visible
28 Apr 7.9 18:26:30 10° WSW 18:33:54 86° NNW 18:41:41 10° ENE visible
28 Apr 9.4 20:22:10 10° W 20:28:31 28° NNW 20:31:42 22° N visible
